[[{"header":{"parameterUnit":"m.s-1","parameterCategory":1,"la1":30.2992,"la2":30.254,"lo1":-89.0895,"lo2":-89.0443,"dy":0.0025,"dx":0.0025,"nx":19,"ny":19,"refTime":"2026-05-13T03:00:00:Z","depth":0,"parameterNumber":2,"parameterNumberName":"U-component_of_WINDS"},"data":[0,0,0,-4.0088,-4.009,-4.0134,-4.0134,-4.0223,-4.0224,0,0,0,0,0,0,0,0,0,0,0,-4.0094,-4.0096,-4.0088,-4.009,-4.0134,-4.0134,-4.0222,-4.0224,0,0,0,0,0,0,0,0,0,0,0,-4.0094,-4.0095,-4.0097,-4.009,-4.0134,-4.0134,-4.0222,-4.0177,0,0,0,0,0,0,0,0,0,0,-4.0129,-4.0153,-4.0095,-4.0097,-4.009,-4.0134,-4.0134,-4.0175,-4.018,-4.0216,0,-4.0253,0,-4.024,-4.0232,-4.0232,0,0,0,-4.0075,-4.0149,-4.0143,-4.0097,-4.0091,-4.0134,-4.011,-4.0177,-4.0184,-4.0223,-4.0254,-4.0257,-4.0242,-4.0232,-4.0233,-4.0489,-4.0491,0,0,-4.0073,-4.0113,-4.0139,-4.0148,-4.0144,-4.0109,-4.0112,-4.018,-4.0217,-4.0254,-4.0258,-4.0243,-4.0233,-4.0234,-4.0487,-4.0489,0,0,0,-4.0075,-4.0112,-4.0104,-4.0146,-4.0151,-4.011,-4.0114,-4.0213,-4.0207,-4.0259,-4.0244,-4.0234,-4.0235,-4.0485,-4.0488,-4.062,0,0,0,-4.0073,-4.0113,-4.0103,-4.0128,-4.0151,-4.0183,-4.0146,-4.0203,-4.0209,-4.0244,-4.0234,-4.0236,-4.0483,-4.0487,-4.0611,-4.0675,0,0,0,-4.0085,-4.0114,-4.0127,-4.013,-4.0151,-4.0181,-4.0178,-4.0203,-4.0201,-4.0232,-4.0237,-4.0481,-4.0486,-4.0604,-4.0663,-4.0754,0,0,0,-4.0108,-4.0244,-4.013,-4.0275,-4.0151,-4.0262,-4.0178,-4.0258,-4.0301,-4.0234,-4.0483,-4.0488,-4.0602,-4.0656,-4.0747,-4.0838,-4.088,0,0,-4.0301,-4.0268,-4.035,-4.025,-4.0392,-4.0252,-4.0413,-4.0414,-4.038,-4.0455,-4.046,-4.0614,-4.0662,-4.0753,-4.1101,-4.1135,0,0,0,-4.0425,-4.0484,-4.0513,-4.0556,-4.056,-4.0568,-4.054,-4.054,-4.0602,-4.0427,-4.067,-4.0698,-4.0749,-4.0791,-4.082,-4.0861,-4.0509,-4.0508,-4.0508,-4.0755,-4.0704,-4.0837,-4.0793,-4.0835,-4.0804,-4.0834,-4.0829,-4.0766,-4.0824,-4.0846,-4.1064,-4.1114,-4.1135,-4.1179,-4.089,-4.0891,-4.0891,-4.0892,-4.1032,-4.1108,-4.1022,-4.1119,-4.1066,-4.1147,-4.1123,-4.1076,-4.1143,-4.1043,-4.1086,-4.098,-4.1174,-4.121,-4.0901,-4.0899,-4.0898,-4.0897,-4.0897,-4.1242,-4.127,-4.1268,-4.1324,-4.1373,-4.1323,-4.1393,-4.1341,-4.1293,-4.1335,-4.1352,-4.135,-4.1341,-4.1347,-4.1348,-4.1349,-4.1349,-4.135,-4.135,-4.1461,-4.1455,-4.1519,-4.1536,-4.1556,-4.1576,-4.1548,-4.1566,-4.1574,-4.1531,-4.153,-4.1462,-4.1202,-4.1138,-4.1362,-4.136,-4.1358,-4.1357,-4.1356,-4.1761,-4.1685,-4.1785,-4.1806,-4.182,-4.1872,-4.1806,-4.1848,-4.1856,-4.1892,-4.1814,-4.1631,-4.1593,-4.157,-4.1516,-4.1825,-4.1825,-4.1825,-4.1825,-4.1938,-4.1914,-4.2005,-4.2041,-4.2071,-4.2021,-4.2136,-4.2116,-4.2082,-4.2084,-4.2032,-4.1957,-4.1935,-4.191,-4.188,-4.1829,-4.221,-4.221,-4.2211,-4.2119,-4.2096,-4.2204,-4.217,-4.2178,-4.2186,-4.2292,-4.2338,-4.2284,-4.2225,-4.2084,-4.2068,-4.1946,-4.1909,-4.1846,-4.18,-4.1706,0,0]},{"header":{"parameterUnit":"m.s-1","parameterCategory":1,"la1":30.2992,"la2":30.254,"lo1":-89.0895,"lo2":-89.0443,"dy":0.0025,"dx":0.0025,"nx":19,"ny":19,"refTime":"2026-05-13T03:00:00:Z","depth":0,"parameterNumber":3,"parameterNumberName":"V-component_of_WINDS"},"data":[0,0,0,-2.4834,-2.4839,-2.5068,-2.5069,-2.535,-2.5353,0,0,0,0,0,0,0,0,0,0,0,-2.476,-2.4761,-2.4834,-2.4839,-2.5068,-2.5069,-2.535,-2.5353,0,0,0,0,0,0,0,0,0,0,0,-2.4759,-2.4761,-2.4763,-2.484,-2.5068,-2.5069,-2.5349,-2.518,0,0,0,0,0,0,0,0,0,0,-2.496,-2.4885,-2.476,-2.4763,-2.4841,-2.5068,-2.5069,-2.5173,-2.5191,-2.5241,0,-2.5285,0,-2.5323,-2.5371,-2.5372,0,0,0,-2.4844,-2.4869,-2.4937,-2.4763,-2.4843,-2.5067,-2.4966,-2.5183,-2.5204,-2.5266,-2.5289,-2.53,-2.5328,-2.5372,-2.5374,-2.5649,-2.565,0,0,-2.4831,-2.4797,-2.4923,-2.495,-2.4915,-2.4959,-2.4973,-2.5196,-2.5219,-2.529,-2.5307,-2.5333,-2.5374,-2.5376,-2.5648,-2.5649,0,0,0,-2.4792,-2.4788,-2.4851,-2.4938,-2.4981,-2.4965,-2.4982,-2.5209,-2.5232,-2.531,-2.5336,-2.5376,-2.5379,-2.5647,-2.5649,-2.5668,0,0,0,-2.4784,-2.4765,-2.4845,-2.4826,-2.4976,-2.5098,-2.499,-2.5217,-2.5243,-2.5334,-2.5376,-2.5382,-2.5646,-2.5648,-2.5665,-2.5683,0,0,0,-2.4747,-2.4761,-2.4792,-2.4824,-2.4921,-2.5095,-2.5131,-2.5223,-2.5259,-2.5372,-2.5383,-2.5645,-2.5647,-2.5662,-2.5678,-2.5745,0,0,0,-2.4697,-2.4806,-2.4791,-2.4923,-2.4919,-2.5105,-2.513,-2.5271,-2.537,-2.5377,-2.5646,-2.5648,-2.5661,-2.5676,-2.5742,-2.5795,-2.5814,0,0,-2.4815,-2.4818,-2.4899,-2.4893,-2.5072,-2.5073,-2.5255,-2.5379,-2.5421,-2.557,-2.5578,-2.5666,-2.5678,-2.5744,-2.5931,-2.5946,0,0,0,-2.4924,-2.4981,-2.5036,-2.5129,-2.5226,-2.531,-2.5409,-2.5455,-2.5583,-2.5491,-2.5709,-2.5717,-2.5757,-2.5785,-2.5797,-2.5834,-2.5659,-2.5659,-2.5659,-2.5043,-2.509,-2.5226,-2.5301,-2.539,-2.5491,-2.5568,-2.5646,-2.5668,-2.5718,-2.5763,-2.5871,-2.5901,-2.5911,-2.5949,-2.5795,-2.5795,-2.5795,-2.5795,-2.522,-2.5309,-2.5334,-2.5475,-2.5524,-2.5643,-2.5743,-2.5754,-2.5872,-2.5841,-2.5879,-2.5842,-2.5926,-2.5961,-2.5797,-2.5797,-2.5797,-2.5796,-2.5796,-2.5304,-2.5354,-2.5407,-2.5546,-2.5647,-2.5719,-2.583,-2.5871,-2.591,-2.5948,-2.6,-2.5999,-2.6005,-2.5969,-2.597,-2.597,-2.597,-2.5971,-2.5971,-2.5369,-2.5429,-2.5518,-2.5628,-2.5693,-2.5783,-2.5884,-2.5949,-2.6031,-2.6052,-2.6052,-2.6069,-2.5925,-2.5888,-2.5977,-2.5976,-2.5975,-2.5975,-2.5974,-2.5532,-2.5502,-2.5639,-2.5704,-2.5837,-2.5934,-2.5985,-2.6112,-2.6171,-2.6225,-2.6233,-2.612,-2.6127,-2.6117,-2.6087,-2.6222,-2.6222,-2.6222,-2.6222,-2.5603,-2.561,-2.5759,-2.586,-2.5963,-2.6022,-2.6175,-2.6254,-2.633,-2.637,-2.6356,-2.6319,-2.6307,-2.6321,-2.6307,-2.628,-2.6461,-2.6462,-2.6462,-2.5706,-2.5725,-2.5848,-2.5922,-2.6029,-2.612,-2.6265,-2.6378,-2.6459,-2.6472,-2.6402,-2.6392,-2.6333,-2.6311,-2.6323,-2.6301,-2.6251,0,0]}]]